Stations météo

réclame
Mon MeteoGroup
Charleville, France (7075): Température de l'air & dewpoint: 17.09.2019 13:00:00 - 23.09.2019 13:00:00 (CEST)Charleville, France (7075): Température de l'air 5cm: 17.09.2019 13:00:00 - 23.09.2019 13:00:00 (CEST)Charleville, France (7075): Température de l'air -20cm & Température de l'air -100cm: 17.09.2019 13:00:00 - 23.09.2019 13:00:00 (CEST)Charleville, France (7075): Vitesse du vent & gusts: 17.09.2019 13:00:00 - 23.09.2019 13:00:00 (CEST)Charleville, France (7075): Direction du vent: 17.09.2019 13:00:00 - 23.09.2019 13:00:00 (CEST)Charleville, France (7075): reduced air pressure: 17.09.2019 13:00:00 - 23.09.2019 13:00:00 (CEST)Charleville, France (7075): visibility: 17.09.2019 13:00:00 - 23.09.2019 13:00:00 (CEST)Charleville, France (7075): Ensoleillement: 17.09.2019 13:00:00 - 23.09.2019 13:00:00 (CEST)Charleville, France (7075): Quantités de précipitations: 17.09.2019 13:00:00 - 23.09.2019 13:00:00 (CEST)
Date & Time tt [°C] td [°C] tt 5cm [°C] tt -20cm [°C] tt -100cm [°C] ff [km/h] ff [knt] fx [km/h] fx [knt] dd ppp [hPa] vv [km] sd [min] rr [mm]
23.09.2019 13:00:00 16,8 12,7 18,1 15,9 15,9 9 5 23 12 W 1016,5 20 5 0,0
23.09.2019 12:00:00 16,8 12,7 15,9 15,9 16,0 13 7 23 12 SW 1016,3 20 19 0,0
23.09.2019 11:00:00 14,9 12,6 14,7 15,9 15,9 10 5 20 11 WSW 1016,3 20 0 0,0
23.09.2019 10:00:00 14,4 12,4 14,3 15,9 15,9 13 7 24 13 SW 1016,1 20 0 0,0
23.09.2019 09:00:00 14,2 12,4 13,6 16,0 16,0 10 5 25 13 SW 1015,5 20 0 0,0
23.09.2019 08:00:00 14,2 12,2 13,5 16,0 16,0 11 6 24 13 SW 1015,0 20 0 0,0
23.09.2019 07:00:00 14,6 12,6 13,9 16,0 16,0 9 5 24 13 SW 1014,3 20 0 0,0
23.09.2019 06:00:00 14,9 13,1 14,0 16,0 16,0 10 5 21 12 SW 1013,7 20 0 0,0
23.09.2019 05:00:00 15,2 13,6 14,5 16,0 16,0 6 3 16 9 SW 1013,4 20 0 0,0
23.09.2019 04:00:00 14,9 13,9 14,6 16,0 16,0 3 2 8 4 SE 1013,1 20 0 0,0
23.09.2019 03:00:00 15,1 14,0 14,6 16,0 16,0 4 2 13 7 S 1013,0 19 0 0,2
23.09.2019 02:00:00 15,1 14,1 14,6 16,0 16,0 5 3 14 8 S 1013,0 20 0 0,0
23.09.2019 01:00:00 14,7 14,1 14,1 16,0 16,0 6 3 18 10 SE 1012,8 20 0 0,0
23.09.2019 00:00:00 14,7 14,1 14,1 16,0 16,0 5 3 10 5 SSE 1012,6 18 0 0,6
22.09.2019 23:00:00 14,4 13,8 13,6 16,1 16,0 5 3 9 5 SSE 1012,0 6 0 1,2
22.09.2019 22:00:00 15,2 13,6 14,4 16,0 16,0 3 2 18 10 S 1011,6 20 0 0,0
22.09.2019 21:00:00 15,8 13,8 15,0 16,0 16,0 11 6 26 14 WSW 1011,4 20 0 0,0
22.09.2019 20:00:00 16,6 14,6 15,7 15,9 16,0 7 4 15 8 WSW 1010,1 20 0 0,0
22.09.2019 19:00:00 17,4 15,7 16,9 15,8 16,0 8 5 36 19 W 1009,6 20 0 0,2
22.09.2019 18:00:00 17,6 15,9 16,9 15,6 16,0 17 9 42 23 SW 1009,2 8 0 3,2
22.09.2019 17:00:00 21,7 16,0 20,2 15,5 16,0 17 9 34 18 SW 1008,0 20 0 0,0
22.09.2019 16:00:00 23,6 15,1 21,9 15,4 16,0 18 10 36 19 SSW 1007,5 20 0 0,0
22.09.2019 15:00:00 24,9 14,4 25,5 15,3 16,0 20 11 39 21 S 1007,2 20 4 0,0
22.09.2019 14:00:00 24,8 14,0 26,3 15,2 16,0 23 12 41 22 S 1007,3 20 35 0,0
22.09.2019 13:00:00 24,8 14,0 22,9 15,1 16,0 14 7 33 18 SE 1007,6 20 32 0,0
22.09.2019 12:00:00 20,4 11,6 20,8 15,1 16,0 16 8 25 13 ESE 1008,7 20 33 0,0
22.09.2019 11:00:00 18,6 10,4 17,7 15,1 16,0 13 7 20 11 E 1009,1 20 9 0,0
22.09.2019 10:00:00 16,6 9,0 16,0 15,2 16,0 10 6 22 12 SE 1009,6 20 0 0,0
22.09.2019 09:00:00 15,4 8,2 12,5 15,2 16,0 8 4 15 8 SE 1009,8 20 19 0,0
22.09.2019 08:00:00 13,6 6,7 11,2 15,3 16,0 6 3 15 8 SSE 1009,8 20 2 0,0
22.09.2019 07:00:00 13,8 6,2 11,0 15,3 16,0 7 4 15 8 SE 1009,8 20 0 0,0
22.09.2019 06:00:00 14,2 6,0 11,9 15,4 16,1 8 4 18 10 SE 1010,1 20 0 0,0
22.09.2019 05:00:00 14,7 5,7 12,4 15,4 16,1 9 5 23 12 SE 1010,7 20 0 0,0
22.09.2019 04:00:00 15,3 5,8 12,7 15,5 16,1 8 5 26 14 SE 1011,0 20 0 0,0
22.09.2019 03:00:00 15,9 6,0 13,8 15,5 16,1 14 8 24 13 SE 1011,3 20 0 0,0
22.09.2019 02:00:00 15,7 6,4 13,6 15,5 16,1 13 7 24 13 ESE 1011,4 20 0 0,0
22.09.2019 01:00:00 16,8 6,9 14,2 15,5 16,1 12 7 22 12 SE 1011,6 20 0 0,0
22.09.2019 00:00:00 18,0 8,0 16,2 15,5 16,1 16 8 28 15 ESE 1011,9 20 0 0,0
21.09.2019 23:00:00 18,8 9,6 16,5 15,5 16,1 15 8 24 13 ESE 1012,4 20 0 0,0
21.09.2019 22:00:00 19,4 10,1 15,7 15,5 16,1 14 7 22 12 ESE 1012,5 20 0 0,0
21.09.2019 21:00:00 19,2 10,5 15,3 15,4 16,1 9 5 23 12 ESE 1012,4 20 0 0,0
21.09.2019 20:00:00 21,3 11,0 19,7 15,3 16,1 15 8 31 17 ESE 1012,0 20 12 0,0
21.09.2019 19:00:00 23,9 10,9 22,9 15,1 16,1 18 10 40 22 ESE 1012,0 20 60 0,0
21.09.2019 18:00:00 25,4 11,2 25,9 15,0 16,1 21 11 36 19 ESE 1012,2 20 60 0,0
21.09.2019 17:00:00 25,9 11,3 28,3 14,8 16,1 25 13 36 20 ESE 1013,1 20 60 0,0
21.09.2019 16:00:00 25,8 10,4 29,0 14,6 16,1 21 12 35 19 ESE 1013,9 20 60 0,0
21.09.2019 15:00:00 24,8 9,1 28,4 14,5 16,1 21 11 34 18 E 1014,8 20 60 0,0
21.09.2019 14:00:00 23,2 8,1 26,4 14,4 16,1 22 12 34 19 ESE 1015,7 20 60 0,0
21.09.2019 13:00:00 21,0 6,9 24,3 14,4 16,1 20 11 36 19 ESE 1016,5 20 60 0,0
21.09.2019 12:00:00 19,1 5,9 21,0 14,4 16,1 21 11 35 19 ESE 1017,3 20 60 0,0
21.09.2019 11:00:00 16,7 4,4 17,8 14,4 16,1 23 12 39 21 ESE 1018,2 20 60 0,0
21.09.2019 10:00:00 14,6 3,7 14,2 14,5 16,1 23 12 41 22 ESE 1018,8 20 60 0,0
21.09.2019 09:00:00 12,6 3,5 10,0 14,6 16,2 16 9 32 17 ESE 1019,0 20 60 0,0
21.09.2019 08:00:00 10,6 3,1 7,6 14,7 16,2 15 8 26 14 SE 1019,1 20 11 0,0
21.09.2019 07:00:00 9,9 3,2 3,3 14,8 16,1 14 8 22 12 SE 1019,3 20 0 0,0
21.09.2019 06:00:00 7,7 2,4 3,1 14,9 16,1 2 1 15 8 WSW 1019,6 20 0 0,0
21.09.2019 05:00:00 5,6 2,1 3,1 15,0 16,2 11 6 17 9 ESE 1020,3 20 0 0,0
21.09.2019 04:00:00 9,9 2,7 2,8 15,1 16,2 11 6 15 8 SSE 1020,3 20 0 0,0
21.09.2019 03:00:00 8,9 2,2 4,8 15,1 16,2 9 5 18 10 SE 1020,8 20 0 0,0
21.09.2019 02:00:00 11,2 2,5 8,8 15,2 16,2 12 6 26 14 SSE 1021,1 20 0 0,0
21.09.2019 01:00:00 12,3 2,4 9,8 15,2 16,2 13 7 29 16 SE 1021,2 20 0 0,0
21.09.2019 00:00:00 13,4 2,6 10,5 15,3 16,2 16 9 27 15 ESE 1021,6 20 0 0,0
20.09.2019 23:00:00 14,2 2,7 11,1 15,3 16,2 13 7 27 15 ESE 1022,0 20 0 0,0
20.09.2019 22:00:00 14,1 3,2 9,3 15,3 16,2 15 8 23 12 ESE 1022,2 20 0 0,0
20.09.2019 21:00:00 14,5 3,6 9,9 15,2 16,2 8 4 24 13 ESE 1022,5 20 0 0,0
20.09.2019 20:00:00 16,5 4,5 12,8 15,2 16,2 16 8 25 13 ENE 1022,3 20 21 0,0
20.09.2019 19:00:00 20,1 4,9 19,0 15,1 16,2 14 8 31 17 E 1022,2 20 60 0,0
20.09.2019 18:00:00 22,1 4,6 22,7 14,9 16,2 16 8 26 14 E 1022,3 20 60 0,0
20.09.2019 17:00:00 22,5 4,0 25,2 14,7 16,2 15 8 29 15 ESE 1022,9 20 60 0,0
20.09.2019 16:00:00 21,9 2,6 25,8 14,6 16,2 16 9 28 15 SE 1023,7 20 60 0,0
20.09.2019 15:00:00 21,2 2,0 24,4 14,5 16,2 17 9 35 19 ESE 1024,5 20 60 0,0
20.09.2019 14:00:00 20,3 1,7 24,5 14,4 16,2 19 10 37 20 SE 1025,3 20 60 0,0
20.09.2019 13:00:00 19,0 2,8 22,1 14,4 16,2 21 12 41 22 ESE 1026,0 20 60 0,0
20.09.2019 12:00:00 17,3 2,5 20,6 14,4 16,2 26 14 41 22 ESE 1027,0 20 60 0,0
20.09.2019 11:00:00 16,3 3,7 17,5 14,5 16,2 14 7 24 13 ESE 1027,7 20 60 0,0
20.09.2019 10:00:00 13,4 3,5 11,3 14,6 16,2 11 6 17 9 E 1028,0 20 60 0,0
20.09.2019 09:00:00 6,5 3,8 3,1 14,7 16,2 3 2 8 4 W 1028,4 20 60 0,0
20.09.2019 08:00:00 2,7 1,7 -0,3 14,8 16,2 3 2 8 4 WNW 1028,8 20 12 0,0
20.09.2019 07:00:00 2,3 1,3 -0,5 14,9 16,2 5 3 9 5 WNW 1028,7 20 0 0,0
20.09.2019 06:00:00 2,8 1,5 -0,4 15,1 16,2 3 2 8 4 W 1028,7 20 0 0,0
20.09.2019 05:00:00 2,9 1,4 -0,1 15,2 16,2 3 2 9 5 W 1029,0 20 0 0,0
20.09.2019 04:00:00 4,5 2,4 1,7 15,2 16,2 6 3 10 5 WNW 1029,2 20 0 0,0
20.09.2019 03:00:00 7,4 3,1 2,9 15,3 16,2 2 1 9 5 S 1029,4 20 0 0,0
20.09.2019 02:00:00 8,5 3,1 4,9 15,4 16,2 6 3 22 12 SSE 1029,4 20 0 0,0
20.09.2019 01:00:00 8,1 3,2 4,5 15,5 16,3 2 1 17 9 NE 1029,6 20 0 0,0
20.09.2019 00:00:00 10,5 3,7 6,9 15,6 16,3 11 6 23 12 ENE 1029,6 20 0 0,0
19.09.2019 23:00:00 10,8 3,6 6,3 15,6 16,2 8 5 24 13 ENE 1029,8 20 0 0,0
19.09.2019 22:00:00 12,1 3,8 9,2 15,6 16,3 14 8 23 12 NE 1029,5 20 0 0,0
19.09.2019 21:00:00 12,3 4,0 9,4 15,6 16,2 11 6 20 11 NE 1029,3 20 0 0,0
19.09.2019 20:00:00 13,1 3,7 9,9 15,6 16,3 9 5 24 13 NE 1028,8 20 23 0,0
19.09.2019 19:00:00 16,3 3,7 15,4 15,5 16,3 14 8 34 18 NE 1028,2 20 60 0,0
19.09.2019 18:00:00 17,7 3,6 18,2 15,4 16,3 20 11 34 19 NE 1028,1 20 60 0,0
19.09.2019 17:00:00 18,3 3,7 20,6 15,3 16,2 22 12 35 19 ENE 1028,2 20 60 0,0
19.09.2019 16:00:00 18,3 3,7 21,4 15,2 16,3 21 11 36 20 NE 1028,5 20 60 0,0
19.09.2019 15:00:00 18,0 3,5 22,2 15,1 16,3 21 11 39 21 NE 1028,8 20 60 0,0
19.09.2019 14:00:00 17,6 4,2 21,4 15,1 16,3 17 9 37 20 NE 1029,5 20 60 0,0
19.09.2019 13:00:00 16,5 4,5 20,8 15,0 16,3 19 10 37 20 ENE 1029,8 20 60 0,0
19.09.2019 12:00:00 15,3 3,4 18,0 15,0 16,3 21 12 40 22 ENE 1030,3 20 60 0,0
19.09.2019 11:00:00 14,3 4,0 16,4 15,1 16,3 24 13 37 20 ENE 1030,5 20 60 0,0
19.09.2019 10:00:00 12,9 6,2 14,3 15,2 16,3 13 7 24 13 E 1030,3 20 60 0,0
19.09.2019 09:00:00 10,1 6,8 5,4 15,3 16,3 0 0 8 4 N 1030,1 20 60 0,0
19.09.2019 08:00:00 5,5 4,6 2,1 15,4 16,3 3 2 9 5 NW 1030,0 20 14 0,0
19.09.2019 07:00:00 4,9 3,7 2,3 15,5 16,3 6 4 8 5 WNW 1029,5 20 0 0,0
19.09.2019 06:00:00 6,3 4,1 2,7 15,6 16,3 3 2 17 9 WSW 1028,9 20 0 0,0
19.09.2019 05:00:00 7,9 5,5 4,9 15,7 16,3 5 3 15 8 NNW 1028,9 20 0 0,0
19.09.2019 04:00:00 9,2 5,7 5,0 15,8 16,3 6 3 17 9 NNE 1028,7 20 0 0,0
19.09.2019 03:00:00 8,3 5,2 5,2 15,9 16,3 4 2 16 8 WSW 1028,8 20 0 0,0
19.09.2019 02:00:00 10,4 5,8 8,2 15,9 16,3 4 2 29 15 SE 1028,6 20 0 0,0
19.09.2019 01:00:00 11,3 6,2 9,8 16,0 16,3 14 7 26 14 NNE 1028,3 20 0 0,0
19.09.2019 00:00:00 11,6 5,9 9,7 16,1 16,3 18 10 31 17 NNE 1028,0 20 0 0,0
18.09.2019 23:00:00 11,5 5,6 5,2 16,1 16,3 11 6 21 11 NNE 1027,9 20 0 0,0
18.09.2019 22:00:00 9,4 4,0 5,1 16,2 16,3 3 1 11 6 NE 1027,6 20 0 0,0
18.09.2019 21:00:00 11,1 3,9 7,2 16,2 16,3 6 3 18 10 NE 1027,3 20 0 0,0
18.09.2019 20:00:00 13,9 4,5 11,5 16,2 16,3 11 6 30 16 NNE 1026,5 20 25 0,0
18.09.2019 19:00:00 16,0 4,7 15,3 16,1 16,3 21 12 37 20 NE 1026,0 20 60 0,0
18.09.2019 18:00:00 17,5 4,4 18,0 16,0 16,3 19 10 37 20 NE 1025,7 20 60 0,0
18.09.2019 17:00:00 18,3 5,2 20,2 15,9 16,3 18 10 33 18 N 1025,6 20 60 0,0
18.09.2019 16:00:00 18,3 5,2 21,3 15,8 16,3 20 11 43 23 N 1025,6 20 60 0,0
18.09.2019 15:00:00 17,8 4,4 22,1 15,7 16,3 20 11 37 20 NE 1026,1 20 60 0,0
18.09.2019 14:00:00 17,4 5,0 20,0 15,7 16,3 18 10 39 21 NE 1026,5 20 56 0,0
18.09.2019 13:00:00 16,6 4,9 19,6 15,7 16,3 25 13 42 23 ENE 1027,0 20 60 0,0
18.09.2019 12:00:00 16,0 5,9 17,8 15,7 16,3 19 10 32 17 NE 1027,1 20 60 0,0
18.09.2019 11:00:00 14,6 6,2 17,0 15,9 16,3 20 11 32 17 NE 1027,3 20 60 0,0
18.09.2019 10:00:00 12,9 6,9 11,8 16,0 16,3 2 1 9 5 SE 1027,6 20 60 0,0
18.09.2019 09:00:00 7,2 5,7 2,3 16,1 16,3 6 3 9 5 NW 1027,5 20 60 0,0
18.09.2019 08:00:00 3,1 2,4 -0,2 16,3 16,3 2 1 5 3 WNW 1027,4 7 15 0,0
18.09.2019 07:00:00 2,9 2,2 -0,4 16,4 16,3 4 2 7 4 NW 1027,1 19 0 0,0
18.09.2019 06:00:00 3,5 2,5 0,0 16,6 16,3 5 3 8 5 NW 1026,6 20 0 0,0
18.09.2019 05:00:00 4,3 3,0 0,3 16,7 16,3 4 2 6 3 NNW 1026,4 20 0 0,0
18.09.2019 04:00:00 6,1 3,8 1,9 16,9 16,3 2 1 13 7 NE 1026,2 20 0 0,0
18.09.2019 03:00:00 7,9 5,0 2,5 16,9 16,3 5 3 15 8 NE 1026,0 20 0 0,0
18.09.2019 02:00:00 8,0 4,9 3,2 17,1 16,3 4 2 13 7 NE 1026,0 20 0 0,0
18.09.2019 01:00:00 10,2 5,4 7,0 17,1 16,3 6 3 22 12 NNE 1025,6 20 0 0,0
18.09.2019 00:00:00 11,9 6,0 10,4 17,2 16,3 16 9 35 19 NNE 1025,0 20 0 0,0
17.09.2019 23:00:00 12,2 7,1 10,4 17,3 16,3 12 6 31 17 N 1024,7 20 0 0,0
17.09.2019 22:00:00 13,6 7,4 11,7 17,3 16,3 15 8 29 16 N 1024,1 20 0 0,0
17.09.2019 21:00:00 13,2 8,1 9,7 17,3 16,3 8 5 12 7 NNW 1023,6 20 0 0,0
17.09.2019 20:00:00 15,3 7,8 12,3 17,3 16,3 6 4 22 12 N 1022,6 20 19 0,0
17.09.2019 19:00:00 17,6 8,2 16,8 17,2 16,3 15 8 36 19 N 1022,2 20 58 0,0
17.09.2019 18:00:00 19,0 7,7 19,7 17,2 16,3 18 10 32 17 N 1021,8 20 60 0,0
17.09.2019 17:00:00 20,0 7,7 21,0 17,0 16,3 19 11 37 20 NNW 1021,7 20 58 0,0
17.09.2019 16:00:00 20,4 9,3 24,5 17,0 16,3 12 6 29 16 N 1021,6 20 60 0,0
17.09.2019 15:00:00 20,4 9,0 21,3 16,9 16,3 12 6 33 18 NNW 1021,5 20 56 0,0
17.09.2019 14:00:00 19,2 8,5 22,3 16,8 16,3 9 5 24 13 N 1022,2 20 54 0,0
17.09.2019 13:00:00 18,3 8,8 20,0 16,8 16,3 8 4 22 12 NE 1022,5 20 60 0,0

tt = Température de l'air
td = dewpoint
tt 5cm = Température de l'air 5cm
tt -20cm = Température de l'air -20cm
tt -100cm = Température de l'air -100cm
ff = Vitesse du vent
fx = gusts
dd = Direction du vent
ppp = reduced air pressure
vv = visibility
sd = Ensoleillement
rr = Quantités de précipitations

stations d'obs. à proximité